When you browse on this site, cookies collect data to enhance your experience and personalize the content and advertising you see.
Visit our Privacy Policy to learn more. By continuing to use the site, you agree to this use of cookies and data.
  • In United Kingdom
  • List of Countries
  • For 7 days
  • Water Temperature
  • Satellite Maps
  • Weather Map
  • Weather Widgets
  • user-avatar
    Login

    Hourly Weather Ijtimoiy

    Today, 23 April, Tuesday

    Time Temperature Precipitation Wind Pressure Humidity
    00:00 +14°C° 0.2 mm 2 mps 681 mmHg 76%
    01:00 +14°C° 0.2 mm 2 mps 681 mmHg 74%
    02:00 +14°C° 0.2 mm 2 mps 681 mmHg 72%
    03:00 +14°C° 0 mm 2 mps 680 mmHg 70%
    04:00 +13°C° 0 mm 2 mps 680 mmHg 68%
    05:00 +12°C° 0 mm 3 mps 679 mmHg 65%
    06:00 +13°C° 0 mm 3 mps 679 mmHg 61%
    07:00 +16°C° 0 mm 3 mps 679 mmHg 56%
    08:00 +17°C° 0 mm 3 mps 679 mmHg 52%
    09:00 +18°C° 0 mm 3 mps 680 mmHg 47%
    10:00 +20°C° 0 mm 2 mps 680 mmHg 42%
    11:00 +21°C° 0 mm 2 mps 680 mmHg 38%
    12:00 +23°C° 0 mm 2 mps 680 mmHg 38%
    13:00 +23°C° 0 mm 2 mps 680 mmHg 37%
    14:00 +24°C° 0 mm 2 mps 680 mmHg 36%
    15:00 +24°C° 0.1 mm 2 mps 680 mmHg 36%
    16:00 +24°C° 0.1 mm 2 mps 680 mmHg 36%
    17:00 +24°C° 0.1 mm 1 mps 680 mmHg 36%
    18:00 +23°C° 0.1 mm 1 mps 680 mmHg 40%
    19:00 +22°C° 0.1 mm 1 mps 680 mmHg 44%
    20:00 +21°C° 0.1 mm 1 mps 680 mmHg 48%
    21:00 +20°C° 0 mm 1 mps 679 mmHg 49%
    22:00 +19°C° 0 mm 2 mps 679 mmHg 51%
    23:00 +18°C° 0 mm 3 mps 679 mmHg 53%

    Tomorrow, 24 April, Wednesday

    Time Temperature Precipitation Wind Pressure Humidity
    00:00 +18°C° 0 mm 3 mps 678 mmHg 52%
    01:00 +18°C° 0 mm 3 mps 677 mmHg 52%
    02:00 +17°C° 0 mm 4 mps 677 mmHg 51%
    03:00 +17°C° 0 mm 4 mps 676 mmHg 50%
    04:00 +17°C° 0 mm 4 mps 676 mmHg 49%
    05:00 +17°C° 0 mm 3 mps 676 mmHg 49%
    06:00 +17°C° 0.4 mm 3 mps 676 mmHg 52%
    07:00 +17°C° 0.4 mm 3 mps 676 mmHg 56%
    08:00 +17°C° 0.4 mm 2 mps 676 mmHg 60%
    09:00 +18°C° 0.2 mm 2 mps 677 mmHg 56%
    10:00 +18°C° 0.2 mm 2 mps 677 mmHg 52%
    11:00 +20°C° 0.2 mm 1 mps 678 mmHg 48%
    12:00 +19°C° 1 mm 2 mps 678 mmHg 51%
    13:00 +18°C° 1 mm 2 mps 679 mmHg 54%
    14:00 +18°C° 1 mm 2 mps 679 mmHg 57%
    15:00 +17°C° 1.1 mm 3 mps 679 mmHg 64%
    16:00 +16°C° 1.1 mm 3 mps 679 mmHg 70%
    17:00 +13°C° 1.1 mm 4 mps 680 mmHg 76%
    18:00 +13°C° 1.9 mm 4 mps 680 mmHg 75%
    19:00 +12°C° 1.9 mm 4 mps 681 mmHg 74%
    20:00 +12°C° 1.9 mm 4 mps 682 mmHg 73%
    21:00 +11°C° 1.4 mm 4 mps 683 mmHg 74%
    22:00 +10°C° 1.4 mm 3 mps 683 mmHg 76%
    23:00 +10°C° 1.4 mm 3 mps 684 mmHg 77%

    Day after tomorrow, 25 April, Thursday

    Time Temperature Precipitation Wind Pressure Humidity
    00:00 +9°C° 0.8 mm 3 mps 684 mmHg 79%
    01:00 +9°C° 0.8 mm 3 mps 684 mmHg 81%
    02:00 +8°C° 0.8 mm 3 mps 684 mmHg 82%
    03:00 +8°C° 0.7 mm 2 mps 684 mmHg 83%
    04:00 +8°C° 0.7 mm 2 mps 685 mmHg 84%
    05:00 +8°C° 0.7 mm 2 mps 685 mmHg 84%
    06:00 +8°C° 0.8 mm 2 mps 685 mmHg 85%
    07:00 +8°C° 0.8 mm 2 mps 685 mmHg 85%
    08:00 +7°C° 0.8 mm 2 mps 685 mmHg 85%
    09:00 +8°C° 0.6 mm 2 mps 685 mmHg 83%
    10:00 +8°C° 0.6 mm 2 mps 685 mmHg 81%
    11:00 +8°C° 0.6 mm 2 mps 685 mmHg 80%
    12:00 +10°C° 0.4 mm 1 mps 685 mmHg 75%
    13:00 +11°C° 0.4 mm 1 mps 685 mmHg 71%
    14:00 +12°C° 0.4 mm 1 mps 685 mmHg 66%
    15:00 +12°C° 0.2 mm 1 mps 686 mmHg 64%
    16:00 +12°C° 0.2 mm 1 mps 686 mmHg 62%
    17:00 +12°C° 0.2 mm 1 mps 686 mmHg 61%
    18:00 +10°C° 0.1 mm 2 mps 687 mmHg 63%
    19:00 +10°C° 0.1 mm 2 mps 687 mmHg 65%
    20:00 +9°C° 0.1 mm 3 mps 687 mmHg 67%
    21:00 +9°C° 0.1 mm 2 mps 687 mmHg 68%
    22:00 +8°C° 0.1 mm 2 mps 687 mmHg 70%
    23:00 +9°C° 0.1 mm 1 mps 687 mmHg 71%

    26 April, Friday

    Time Temperature Precipitation Wind Pressure Humidity
    00:00 +9°C° 0.1 mm 1 mps 687 mmHg 73%
    01:00 +9°C° 0.1 mm 1 mps 687 mmHg 75%
    02:00 +7°C° 0.1 mm 0 mps 687 mmHg 77%
    03:00 +7°C° 0 mm 0 mps 687 mmHg 78%
    04:00 +7°C° 0 mm 0 mps 687 mmHg 80%
    05:00 +6°C° 0 mm 0 mps 687 mmHg 81%
    06:00 +7°C° 0 mm 0 mps 687 mmHg 78%
    07:00 +9°C° 0 mm 1 mps 687 mmHg 74%
    08:00 +9°C° 0 mm 1 mps 687 mmHg 71%
    09:00 +9°C° 0.1 mm 2 mps 687 mmHg 67%
    10:00 +10°C° 0.1 mm 2 mps 687 mmHg 64%
    11:00 +11°C° 0.1 mm 3 mps 687 mmHg 61%
    12:00 +12°C° 0.1 mm 3 mps 687 mmHg 57%
    13:00 +13°C° 0.1 mm 3 mps 687 mmHg 54%
    14:00 +13°C° 0.1 mm 3 mps 686 mmHg 51%
    15:00 +15°C° 0.1 mm 2 mps 686 mmHg 49%
    16:00 +15°C° 0.1 mm 2 mps 686 mmHg 48%
    17:00 +15°C° 0.1 mm 2 mps 686 mmHg 47%
    18:00 +14°C° 0 mm 2 mps 687 mmHg 50%
    19:00 +14°C° 0 mm 1 mps 687 mmHg 53%
    20:00 +13°C° 0 mm 1 mps 687 mmHg 55%
    21:00 +12°C° 0 mm 1 mps 687 mmHg 58%
    22:00 +12°C° 0 mm 1 mps 687 mmHg 60%
    23:00 +10°C° 0 mm 0 mps 687 mmHg 62%

    27 April, Saturday

    Time Temperature Precipitation Wind Pressure Humidity
    00:00 +11°C° 0 mm 1 mps 686 mmHg 61%
    01:00 +11°C° 0 mm 1 mps 686 mmHg 60%
    02:00 +10°C° 0 mm 1 mps 686 mmHg 60%
    03:00 +10°C° 0 mm 1 mps 686 mmHg 60%
    04:00 +10°C° 0 mm 1 mps 685 mmHg 60%
    05:00 +9°C° 0 mm 1 mps 685 mmHg 59%
    06:00 +10°C° 0 mm 1 mps 686 mmHg 57%
    07:00 +11°C° 0 mm 1 mps 686 mmHg 56%
    08:00 +11°C° 0 mm 0 mps 686 mmHg 54%
    09:00 +13°C° 0 mm 1 mps 686 mmHg 53%
    10:00 +14°C° 0 mm 2 mps 686 mmHg 53%
    11:00 +14°C° 0 mm 3 mps 686 mmHg 52%
    12:00 +14°C° 0.2 mm 3 mps 686 mmHg 53%
    13:00 +14°C° 0.2 mm 3 mps 686 mmHg 53%
    14:00 +14°C° 0.2 mm 3 mps 686 mmHg 53%
    15:00 +14°C° 0.5 mm 3 mps 686 mmHg 54%
    16:00 +14°C° 0.5 mm 3 mps 687 mmHg 55%
    17:00 +14°C° 0.5 mm 3 mps 687 mmHg 56%
    18:00 +13°C° 0.4 mm 3 mps 687 mmHg 59%
    19:00 +14°C° 0.4 mm 2 mps 688 mmHg 63%
    20:00 +13°C° 0.4 mm 1 mps 688 mmHg 66%
    21:00 +13°C° 0.1 mm 1 mps 688 mmHg 68%
    22:00 +12°C° 0.1 mm 1 mps 688 mmHg 71%
    23:00 +12°C° 0.1 mm 1 mps 687 mmHg 74%

    28 April, Sunday

    Time Temperature Precipitation Wind Pressure Humidity
    00:00 +12°C° 0 mm 1 mps 687 mmHg 74%
    01:00 +11°C° 0 mm 1 mps 686 mmHg 75%
    02:00 +11°C° 0 mm 1 mps 686 mmHg 75%
    03:00 +10°C° 0 mm 2 mps 686 mmHg 73%
    04:00 +10°C° 0 mm 2 mps 685 mmHg 70%
    05:00 +9°C° 0 mm 2 mps 685 mmHg 68%
    06:00 +10°C° 0 mm 2 mps 685 mmHg 63%
    07:00 +12°C° 0 mm 1 mps 685 mmHg 58%
    08:00 +13°C° 0 mm 1 mps 685 mmHg 53%
    09:00 +15°C° 0 mm 1 mps 685 mmHg 49%
    10:00 +16°C° 0 mm 1 mps 685 mmHg 45%
    11:00 +18°C° 0 mm 1 mps 685 mmHg 41%
    12:00 +18°C° 0 mm 1 mps 685 mmHg 41%
    13:00 +18°C° 0 mm 2 mps 685 mmHg 40%
    14:00 +18°C° 0 mm 2 mps 685 mmHg 39%
    15:00 +18°C° 0.1 mm 2 mps 685 mmHg 40%
    16:00 +18°C° 0.1 mm 2 mps 685 mmHg 41%
    17:00 +19°C° 0.1 mm 1 mps 685 mmHg 42%
    18:00 +18°C° 0.1 mm 1 mps 685 mmHg 46%
    19:00 +16°C° 0.1 mm 1 mps 685 mmHg 49%
    20:00 +15°C° 0.1 mm 1 mps 685 mmHg 53%
    21:00 +15°C° 0.1 mm 1 mps 685 mmHg 54%
    22:00 +15°C° 0.1 mm 1 mps 685 mmHg 55%
    23:00 +14°C° 0.1 mm 1 mps 685 mmHg 57%
    Show more